Regional Weather Roundup
Issued by NWS Jackson, KY

Home | Current Version | Previous Version | Graphics & Text | Print | Product List | Glossary On
Versions: 1 2 3 4 5 6 7 8 9 10 11 12 13 14 15 16 17 18 19 20 21 22 23 24 25 26 27 28 29 30 31 32 33 34 35 36 37 38 39 40 41 42 43 44 45 46 47 48 49 50
375
ASUS43 KJKL 201310
RWRJKL

EAST KENTUCKY HOURLY WEATHER ROUNDUP
NATIONAL WEATHER SERVICE JACKSON KY
800 AM EST SAT JAN 20 2018

NOTE: "FAIR" INDICATES FEW OR NO CLOUDS BELOW 12,000 FEET WITH
NO SIGNIFICANT WEATHER AND/OR OBSTRUCTIONS TO VISIBILITY.

* THESE REPORTS ARE NOT UNDER NWS QUALITY CONTROL AND MAY NOT
  REPORT WEATHER SUCH AS PRECIPITATION AND FOG.

KYZ079-080-083-085-087-088-110-112-115-119-120-201400
...EASTERN KENTUCKY...

CITY           SKY/WX    TMP DP  RH WIND       PRES   REMARKS
JACKSON        CLOUDY    44  33  65 VRB7      30.17R
LONDON         CLOUDY    44  31  60 SW7       30.19R
SOMERSET*      CLOUDY    39  28  65 S3        30.21R
MONTICELLO*    CLOUDY    46  34  61 SW15      30.21R
WILLIAMSBURG*  CLOUDY    41  32  70 S7        30.20S
MIDDLESBORO*   CLOUDY    32  29  86 CALM      30.25S
HARLAN APT*    CLOUDY    32  23  69 CALM      30.23R
PIKE CO APT*   CLOUDY    43  33  69 S3        30.17R
BIG SANDY APT* CLOUDY    44  33  66 SW5       30.17S
MOREHEAD APT*  CLOUDY    43  28  56 SW14G21   30.16R
ASHLAND*         N/A     23  21  92 E3        30.15R
$$

KYZ035-036-041-042-044-050-067-078-099-201400
...CENTRAL KENTUCKY...

CITY           SKY/WX    TMP DP  RH WIND       PRES   REMARKS
MT STERLING*   CLOUDY    41  30  65 SW10      30.16R
FLEMING/MASON*   N/A     36  27  70 SW8       30.14S WCI  29
DANVILLE*      CLOUDY    41  28  60 SW8       30.16R
LEXINGTON      CLOUDY    40  27  59 SW10      30.14R WCI  33
FRANKFORT        N/A     40  23  50 SW10      30.12R WCI  33
LOUISVILLE     MOCLDY    41  20  43 SW7       30.12R
LEBANON*       CLOUDY    41  27  56 S13       30.15R
GLASGOW*       CLOUDY    41  28  60 S6        30.18R
BOWLING GREEN  CLOUDY    41  29  62 SW5       30.19R
$$

KYZ091>093-OHZ055-061-077-WVZ005-015-034-035-042-201400
...SOUTHERN OHIO/WEST VIRGINIA...

CITY           SKY/WX    TMP DP  RH WIND       PRES   REMARKS
COVINGTON      MOCLDY    33  25  72 S10       30.07R WCI  25
COLUMBUS       MOCLDY    31  23  72 S7        30.04R WCI  24
DAYTON         MOCLDY    31  23  72 SW13      30.02R WCI  21
WILMINGTON       N/A     32  24  72 SW12      30.05R WCI  23
HUNTINGTON       N/A     40  28  62 SW7       30.14R
CHARLESTON     MOCLDY    44  32  62 SW10      30.14R
BECKLEY        CLOUDY    34  23  64 SW7       30.15R WCI  28
BLUEFIELD      CLOUDY    35  27  72 W12       30.16R WCI  27
LOGAN CO APT*  CLOUDY    39  25  56 CALM      30.16S
$$

VAZ002-007-008-TNZ017-027-036-066-071-201400
...SOUTHWEST VIRGINIA/EAST TENNESSEE...

CITY           SKY/WX    TMP DP  RH WIND       PRES   REMARKS
WISE*          CLOUDY    36  27  69 SW12      30.21R WCI  27
JONESVILLE*    PTSUNNY   30  25  80 CALM      30.29R
ABINGDON*      CLOUDY    35  20  53 CALM      30.24R
BRISTOL        CLOUDY    30  26  85 CALM      30.26R
MORRISTOWN*    CLOUDY    34  23  64 CALM      30.25S
SEVIERVILLE*   CLOUDY    34  27  75 CALM      30.28R
KNOXVILLE      CLOUDY    36  20  52 VRB3      30.26R
LAFOLLETTE*    CLOUDY    32  25  74 CALM      30.29R
OAK RIDGE      CLOUDY    35  26  69 CALM      30.27S
CROSSVILLE     CLOUDY    37  19  48 CALM      30.22R
NASHVILLE        N/A     41  25  53 S7        30.21R
$$

...KEY TO REMARKS...
VSB - VISIBILITY IN MILES
WCI - WIND CHILL INDEX
HX  - HEAT INDEX

$$




USA.gov is the U.S. government's official web portal to all federal, state and local government web resources and services.